Weather in Kovaksa

Russia / Nizhny Novgorod Oblast'     55°31′07″N   43°30′09″E
temp.,
°C
wind,
m/s
gust,
m/s
humid.,
%
clouds,
%
prec.,
mm/h
press.,
hPa
HPBL,
m
16 september, thu
thu1600:00+8wnw4789100 0.1 1011566
03:00+7wnw4792100 0.3 1011553
06:00+7nw369599 1.2 1012443
09:00+7n378458 1.3 1014653
12:00+10nnw5655100 0.0 10151483
15:00+10nnw5752100 0.0 10161550
18:00+9nnw4653100 0.0 1017640
21:00+8nw3555100 0.0 1017306
17 september, fri
fri1700:00+7wnw3661100 0.0 1018331
03:00+6nw3669100 0.0 1018396
06:00+5nw3675100 0.0 1018348
09:00+8nw346293 0.0 10181042
12:00+10nnw4449100 0.3 10181743
15:00+9nnw4550100 0.3 10181344
18:00+8nnw3653100 0.0 1019586
21:00+3nnw22697 0.0 102036
18 september, sat
sat1800:00+2nnw34745 0.0 102172
03:00+1nw34935 0.0 102270
06:00+1nnw25977 0.0 1023100
09:00+6nnw3476100 0.0 1024361
12:00+7nnw346996 0.0 1024736
15:00+8n455787 0.1 10241061
18:00+6n48607 0.0 1025209
21:00+2ne22765 0.0 102626
19 september, sun
sun1900:00+1ne227796 0.0 102616
03:00+1ne2275100 0.0 102612
06:00+1ne2276100 0.0 102732
09:00+5ene2357100 0.0 1027417
12:00+8e3346100 0.0 10261030
15:00+9e3444100 0.0 10251061
18:00+7ene3651100 0.0 1024158
21:00+5e3954100 0.0 1024280
20 september, mon
mon2000:00+5e41059100 0.1 1023401
03:00+5e51167100 0.1 1023415
06:00+5e61272100 0.0 1022589
09:00+5e71382100 1.2 1022864
12:00+4ene81491100 1.2 1022833
15:00+5e81494100 2.7 1022865
18:00+5e71492100 0.6 1022767
21:00+5e71493100 0.7 1022763